TimeCST,TemperatureF,Dew PointF,Humidity,Sea Level PressureIn,VisibilityMPH,Wind Direction,Wind SpeedMPH,Gust SpeedMPH,PrecipitationIn,Events,Conditions,WindDirDegrees,DateUTC
12:15 AM,21.2,12.2,68,30.29,10.0,NW,5.8,-,N/A,,Clear,320,2011-11-29 06:15:00
12:35 AM,19.4,12.2,74,30.29,10.0,NW,5.8,-,N/A,,Clear,320,2011-11-29 06:35:00
12:55 AM,21.2,14.0,74,30.29,10.0,NNW,5.8,-,N/A,,Clear,330,2011-11-29 06:55:00
1:15 AM,19.4,12.2,74,30.30,10.0,NW,3.5,-,N/A,,Clear,320,2011-11-29 07:15:00
1:35 AM,21.2,14.0,74,30.30,10.0,West,3.5,-,N/A,,Clear,280,2011-11-29 07:35:00
1:55 AM,19.4,12.2,74,30.30,10.0,West,3.5,-,N/A,,Clear,270,2011-11-29 07:55:00
2:15 AM,19.4,12.2,74,30.30,10.0,Calm,Calm,-,N/A,,Clear,0,2011-11-29 08:15:00
2:35 AM,14.0,10.4,86,30.31,10.0,Calm,Calm,-,N/A,,Clear,0,2011-11-29 08:35:00
2:55 AM,14.0,10.4,86,30.31,10.0,Calm,Calm,-,N/A,,Clear,0,2011-11-29 08:55:00
3:15 AM,15.8,12.2,86,30.31,10.0,Calm,Calm,-,N/A,,Clear,0,2011-11-29 09:15:00
3:35 AM,10.4,8.6,92,30.31,10.0,Calm,Calm,-,N/A,,Clear,0,2011-11-29 09:35:00
3:55 AM,14.0,12.2,93,30.31,10.0,Calm,Calm,-,N/A,,Clear,0,2011-11-29 09:55:00
4:15 AM,15.8,14.0,93,30.30,10.0,Calm,Calm,-,N/A,,Clear,0,2011-11-29 10:15:00
4:35 AM,14.0,12.2,93,30.31,10.0,Calm,Calm,-,N/A,,Clear,0,2011-11-29 10:35:00
4:55 AM,12.2,10.4,92,30.30,10.0,Calm,Calm,-,N/A,,Clear,0,2011-11-29 10:55:00
5:15 AM,12.2,10.4,92,30.31,10.0,Calm,Calm,-,N/A,,Clear,0,2011-11-29 11:15:00
5:35 AM,10.4,10.4,100,30.30,10.0,Calm,Calm,-,N/A,,Clear,0,2011-11-29 11:35:00
6:15 AM,12.2,10.4,92,30.32,10.0,Calm,Calm,-,N/A,,Clear,0,2011-11-29 12:15:00
6:35 AM,8.6,6.8,92,30.32,10.0,Calm,Calm,-,N/A,,Clear,0,2011-11-29 12:35:00
6:55 AM,10.4,8.6,92,30.32,10.0,West,4.6,-,N/A,,Clear,260,2011-11-29 12:55:00
7:15 AM,12.2,12.2,100,30.32,10.0,Calm,Calm,-,N/A,,Clear,0,2011-11-29 13:15:00
7:35 AM,12.2,10.4,92,30.32,7.0,Calm,Calm,-,N/A,,Clear,0,2011-11-29 13:35:00
7:55 AM,10.4,6.8,85,30.32,10.0,Calm,Calm,-,N/A,,Clear,0,2011-11-29 13:55:00
8:15 AM,8.6,5.0,85,30.32,10.0,Calm,Calm,-,N/A,,Clear,0,2011-11-29 14:15:00
8:35 AM,10.4,8.6,92,30.32,10.0,Calm,Calm,-,N/A,,Clear,0,2011-11-29 14:35:00
8:55 AM,15.8,14.0,93,30.32,10.0,Calm,Calm,-,N/A,,Clear,0,2011-11-29 14:55:00
9:15 AM,17.6,15.8,93,30.32,10.0,Calm,Calm,-,N/A,,Clear,0,2011-11-29 15:15:00
9:35 AM,19.4,17.6,93,30.32,10.0,Calm,Calm,-,N/A,Snow,Light Snow,0,2011-11-29 15:35:00
9:55 AM,21.2,17.6,86,30.32,10.0,Calm,Calm,-,N/A,Snow,Light Snow,0,2011-11-29 15:55:00
10:35 AM,26.6,19.4,74,30.30,10.0,SSE,3.5,-,N/A,,Clear,150,2011-11-29 16:35:00
10:55 AM,28.4,19.4,69,30.29,10.0,South,4.6,-,N/A,,Clear,170,2011-11-29 16:55:00
11:15 AM,28.4,17.6,64,30.26,10.0,South,9.2,-,N/A,Snow,Light Snow,170,2011-11-29 17:15:00
11:35 AM,30.2,14.0,51,30.26,10.0,SSE,9.2,-,N/A,Snow,Light Snow,160,2011-11-29 17:35:00
11:55 AM,30.2,14.0,51,30.26,10.0,South,4.6,-,N/A,Snow,Light Snow,180,2011-11-29 17:55:00
12:35 PM,32.0,12.2,44,30.25,10.0,SSW,5.8,-,N/A,,Clear,210,2011-11-29 18:35:00
12:55 PM,32.0,14.0,48,30.24,10.0,South,5.8,-,N/A,,Clear,190,2011-11-29 18:55:00
1:55 PM,33.8,10.4,38,30.21,10.0,SSW,5.8,-,N/A,,Clear,200,2011-11-29 19:55:00
2:15 PM,33.8,10.4,38,30.19,10.0,SSW,5.8,-,N/A,,Clear,200,2011-11-29 20:15:00
2:35 PM,33.8,10.4,38,30.18,10.0,SSW,4.6,-,N/A,,Clear,200,2011-11-29 20:35:00
2:55 PM,33.8,10.4,38,30.17,10.0,SSW,4.6,-,N/A,,Clear,210,2011-11-29 20:55:00
3:15 PM,33.8,10.4,38,30.16,10.0,South,6.9,-,N/A,,Clear,190,2011-11-29 21:15:00
3:35 PM,33.8,10.4,38,30.14,10.0,SSW,4.6,-,N/A,,Clear,210,2011-11-29 21:35:00
3:55 PM,32.0,10.4,41,30.14,10.0,South,4.6,-,N/A,,Clear,190,2011-11-29 21:55:00
4:15 PM,32.0,8.6,38,30.14,10.0,SSW,3.5,-,N/A,,Clear,200,2011-11-29 22:15:00
4:35 PM,32.0,8.6,38,30.14,7.0,SSW,4.6,-,N/A,,Clear,200,2011-11-29 22:35:00
4:55 PM,30.2,10.4,44,30.12,10.0,South,3.5,-,N/A,,Clear,190,2011-11-29 22:55:00
5:15 PM,30.2,10.4,44,30.11,10.0,South,5.8,-,N/A,,Clear,170,2011-11-29 23:15:00
5:35 PM,28.4,10.4,47,30.11,10.0,South,4.6,-,N/A,,Clear,180,2011-11-29 23:35:00
5:55 PM,28.4,10.4,47,30.10,10.0,South,4.6,-,N/A,,Clear,190,2011-11-29 23:55:00
6:15 PM,28.4,12.2,51,30.10,10.0,South,4.6,-,N/A,,Clear,190,2011-11-30 00:15:00
6:35 PM,28.4,12.2,51,30.09,10.0,South,4.6,-,N/A,,Clear,190,2011-11-30 00:35:00
6:55 PM,28.4,12.2,51,30.07,10.0,South,5.8,-,N/A,,Clear,180,2011-11-30 00:55:00
7:35 PM,28.4,14.0,55,30.04,10.0,SSW,5.8,-,N/A,,Clear,200,2011-11-30 01:35:00
7:55 PM,26.6,14.0,59,30.03,10.0,SSW,6.9,-,N/A,,Clear,200,2011-11-30 01:55:00
8:15 PM,28.4,14.0,55,30.02,10.0,South,4.6,-,N/A,,Clear,190,2011-11-30 02:15:00
8:35 PM,28.4,14.0,55,30.01,7.0,SSW,4.6,-,N/A,,Clear,200,2011-11-30 02:35:00
8:55 PM,28.4,14.0,55,30.00,10.0,SSW,3.5,-,N/A,,Clear,200,2011-11-30 02:55:00
9:15 PM,28.4,15.8,59,30.00,10.0,SSW,3.5,-,N/A,,Clear,200,2011-11-30 03:15:00
9:35 PM,28.4,15.8,59,30.00,10.0,SSW,3.5,-,N/A,,Clear,210,2011-11-30 03:35:00
9:55 PM,28.4,15.8,59,29.99,10.0,SSW,3.5,-,N/A,,Clear,200,2011-11-30 03:55:00
10:15 PM,28.4,15.8,59,29.97,10.0,South,3.5,-,N/A,,Clear,190,2011-11-30 04:15:00
10:35 PM,28.4,17.6,64,29.97,10.0,Calm,Calm,-,N/A,,Clear,0,2011-11-30 04:35:00
10:55 PM,28.4,17.6,64,29.96,10.0,Calm,Calm,-,N/A,,Clear,0,2011-11-30 04:55:00
11:35 PM,28.4,17.6,64,29.94,10.0,Calm,Calm,-,N/A,,Clear,0,2011-11-30 05:35:00
11:55 PM,26.6,17.6,69,29.93,10.0,Calm,Calm,-,N/A,,Clear,0,2011-11-30 05:55:00